[[{"header":{"parameterUnit":"m.s-1","parameterCategory":2,"la1":30.2991,"la2":30.254,"lo1":-89.0895,"lo2":-89.0444,"dy":0.0017,"dx":0.0017,"nx":28,"ny":28,"refTime":"2026-01-04T03:00:00:Z","depth":"0","parameterNumber":2,"parameterNumberName":"U-component_of_CURRENTS"},"data":[0,0,0,0,0,0,0,0,0,0,0,0,0,0,0,0,0,0,0,0,0,0,0,0,0,0,0,0,0,0,0,0,0,0,0,0,0,0,0,0,0,0,0,0,0,0,0,0,0,0,0,0,0,0,0,0,0,0,-0.4384,-0.4384,0,-0.452,-0.4523,-0.4526,-0.4657,-0.4657,-0.4657,-0.4656,-0.4697,-0.4698,-0.47,0,0,0,0,0,0,0,0,0,0,0,0,0,-0.4265,-0.4268,-0.4384,-0.4384,-0.4383,-0.4519,-0.4523,-0.4527,-0.4657,-0.4657,-0.4657,-0.4656,-0.4696,-0.4698,-0.47,0,0,0,0,0,0,0,0,0,0,0,0,0,-0.4371,-0.4269,-0.4384,-0.4448,-0.4454,-0.4518,-0.4523,-0.4528,-0.4658,-0.4657,-0.4656,-0.4656,-0.4696,-0.4698,-0.47,-0.4725,0,0,-0.4707,-0.4708,0,0,0,0,0,0,0,0,-0.4365,-0.4379,-0.4439,-0.4444,-0.4449,-0.4551,-0.4495,-0.4582,-0.4658,-0.4604,-0.4656,-0.4656,-0.4625,-0.4633,-0.4693,-0.4727,-0.4729,-0.4707,-0.4708,-0.4709,-0.471,0,0,0,0,0,0,0,-0.4358,-0.4373,-0.4461,-0.4438,-0.4444,-0.4477,-0.4494,-0.4514,-0.4632,-0.4609,-0.4613,-0.4592,-0.463,-0.4691,-0.4694,-0.4729,-0.4707,-0.4709,-0.471,-0.4711,-0.4763,-0.4763,0,0,0,0,0,0,-0.4295,-0.4367,-0.4456,-0.4463,-0.4379,-0.4478,-0.4498,-0.4538,-0.4634,-0.4642,-0.4592,-0.4597,-0.4688,-0.4692,-0.4696,-0.4705,-0.4709,-0.4711,-0.4712,-0.4763,-0.4763,-0.4763,0,0,0,0,0,0,-0.4294,-0.4305,-0.445,-0.4395,-0.4413,-0.4478,-0.4523,-0.454,-0.4579,-0.4618,-0.463,-0.4607,-0.4688,-0.4693,-0.4733,-0.4707,-0.4712,-0.4714,-0.4763,-0.4763,-0.4763,-0.4736,0,0,0,0,0,0,-0.4291,-0.4305,-0.4307,-0.4393,-0.4413,-0.4493,-0.4522,-0.4542,-0.4557,-0.4566,-0.4634,-0.464,-0.4688,-0.473,-0.4735,-0.471,-0.4716,-0.4763,-0.4763,-0.4763,-0.4737,-0.4736,-0.4734,0,0,0,0,0,-0.4287,-0.4304,-0.4309,-0.4316,-0.4419,-0.4491,-0.451,-0.4566,-0.4557,-0.4597,-0.4644,-0.4637,-0.4733,-0.4733,-0.4739,-0.4713,-0.4763,-0.4763,-0.4763,-0.4738,-0.4736,-0.4734,0,0,0,0,0,0,-0.4259,-0.4318,-0.4326,-0.4361,-0.441,-0.4505,-0.4528,-0.4545,-0.462,-0.4621,-0.4658,-0.467,-0.4691,-0.4708,-0.4706,-0.4729,-0.4737,-0.4739,-0.4716,-0.4714,-0.4713,-0.4695,-0.4718,0,0,0,0,0,-0.4242,-0.4255,-0.4331,-0.4339,-0.438,-0.4444,-0.4468,-0.4509,-0.4571,-0.4605,-0.4644,-0.4677,-0.4702,-0.4712,-0.4754,-0.4767,-0.4706,-0.4749,-0.4747,-0.4746,-0.4736,-0.464,-0.4628,-0.4764,-0.4764,-0.4764,0,0,-0.4218,-0.4244,-0.425,-0.4326,-0.4383,-0.4444,-0.4467,-0.4516,-0.4537,-0.459,-0.4643,-0.4677,-0.4707,-0.4745,-0.475,-0.475,-0.4667,-0.4746,-0.4745,-0.4736,-0.4639,-0.4625,-0.4613,-0.4764,-0.4764,-0.4764,0,0,-0.4182,-0.4228,-0.4245,-0.4306,-0.4362,-0.4416,-0.4414,-0.4515,-0.4547,-0.4596,-0.4628,-0.4653,-0.4702,-0.4732,-0.4742,-0.4746,-0.4667,-0.4738,-0.4711,-0.4618,-0.4605,-0.4593,-0.4456,-0.4432,-0.4731,-0.4731,-0.4731,0,-0.4145,-0.4191,-0.4254,-0.4308,-0.4337,-0.4395,-0.4441,-0.4492,-0.4573,-0.4574,-0.4604,-0.4651,-0.4696,-0.4688,-0.4721,-0.4739,-0.4653,-0.4715,-0.4612,-0.4599,-0.4587,-0.445,-0.4424,-0.473,-0.473,-0.473,-0.473,0,-0.4147,-0.4192,-0.4218,-0.4297,-0.4346,-0.4396,-0.447,-0.4504,-0.4522,-0.455,-0.4555,-0.4627,-0.4643,-0.4656,-0.4707,-0.4641,-0.4593,-0.4621,-0.4607,-0.4571,-0.443,-0.4403,-0.4728,-0.4729,-0.4729,-0.4729,0,0,-0.4051,-0.419,-0.4198,-0.4217,-0.435,-0.4371,-0.4427,-0.447,-0.4437,-0.4514,-0.4463,-0.4558,-0.4569,-0.4583,-0.4614,-0.4561,-0.4427,-0.4561,-0.4557,-0.4408,-0.416,-0.4075,-0.4037,-0.442,-0.4416,-0.4413,-0.4079,0,-0.4031,-0.4093,-0.4184,-0.422,-0.4266,-0.4356,-0.4374,-0.4408,-0.4437,-0.4411,-0.4443,-0.4429,-0.454,-0.4525,-0.45,-0.4457,-0.4361,-0.4512,-0.4233,-0.4224,-0.414,-0.4007,-0.3886,-0.3574,-0.4052,-0.4048,-0.4045,0,-0.4005,-0.4044,-0.4091,-0.4146,-0.4175,-0.4195,-0.4203,-0.4228,-0.4239,-0.4253,-0.4267,-0.4297,-0.4278,-0.4348,-0.4225,-0.4307,-0.4231,-0.4181,-0.4167,-0.4081,-0.409,-0.3699,-0.3507,-0.3505,-0.4003,-0.4006,-0.4009,0,-0.3851,-0.3963,-0.3967,-0.4008,-0.4099,-0.4096,-0.412,-0.4157,-0.4126,-0.4129,-0.4084,-0.4104,-0.4049,-0.4007,-0.4008,-0.408,-0.3807,-0.3886,-0.3709,-0.37,-0.3541,-0.3525,-0.3303,-0.3723,-0.3723,-0.3724,-0.3725,0,-0.3778,-0.3773,-0.3881,-0.3883,-0.3812,-0.3947,-0.3862,-0.3898,-0.3909,-0.3836,-0.3964,-0.3893,-0.3958,-0.3868,-0.388,-0.3698,-0.3697,-0.3648,-0.3597,-0.3526,-0.3514,-0.3466,-0.353,-0.3712,-0.3714,-0.3717,-0.3719,0,-0.3583,-0.3691,-0.3656,-0.3732,-0.3734,-0.3659,-0.367,-0.3619,-0.3673,-0.3576,-0.3567,-0.3643,-0.3563,-0.3586,-0.3474,-0.3473,-0.3283,-0.3279,-0.3182,-0.3127,-0.3005,-0.3073,-0.2772,-0.2696,-0.3002,-0.2998,-0.2994,0,-0.3481,-0.3459,-0.3469,-0.3421,-0.3441,-0.3384,-0.3348,-0.3442,-0.3415,-0.3423,-0.3352,-0.33,-0.3256,-0.3069,-0.306,-0.2949,-0.3033,-0.276,-0.291,-0.292,-0.2957,-0.3023,-0.2989,-0.2656,-0.265,-0.2645,-0.2641,0,-0.323,-0.323,-0.3188,-0.312,-0.3072,-0.3017,-0.3004,-0.2959,-0.307,-0.3034,-0.3004,-0.2979,-0.2864,-0.2755,-0.2644,-0.2598,-0.2713,-0.2653,-0.2672,-0.2655,-0.2696,-0.2625,-0.2949,-0.2597,-0.2601,-0.2605,-0.2607,-0.2609,-0.2986,-0.2873,-0.2839,-0.2753,-0.272,-0.2678,-0.2585,-0.2646,-0.2593,-0.2584,-0.2668,-0.2609,-0.2565,-0.2427,-0.2355,-0.2229,-0.2346,-0.2222,-0.2286,-0.2339,-0.232,-0.2536,-0.2156,-0.2158,-0.2159,-0.216,-0.2162,0,-0.2661,-0.2588,-0.2494,-0.2408,-0.2325,-0.2405,-0.2368,-0.2305,-0.2243,-0.2313,-0.2302,-0.227,-0.2135,-0.2121,-0.2014,-0.1923,-0.1913,-0.1897,-0.1976,-0.1948,-0.2101,-0.2149,-0.1739,-0.1739,-0.1739,-0.1739,-0.1739,-0.1739,-0.2484,-0.2287,-0.2265,-0.2053,-0.2022,-0.1877,-0.1838,-0.1817,-0.1843,-0.1827,-0.1868,-0.1919,-0.1926,-0.2055,-0.1918,-0.1817,-0.1814,-0.1728,-0.1786,-0.196,-0.1998,-0.2034,-0.2092,-0.1677,-0.1677,-0.1564,-0.1564,-0.1563]},{"header":{"parameterUnit":"m.s-1","parameterCategory":2,"la1":30.2991,"la2":30.254,"lo1":-89.0895,"lo2":-89.0444,"dy":0.0017,"dx":0.0017,"nx":28,"ny":28,"refTime":"2026-01-04T03:00:00:Z","depth":"0","parameterNumber":3,"parameterNumberName":"V-component_of_CURRENTS"},"data":[0,0,0,0,0,0,0,0,0,0,0,0,0,0,0,0,0,0,0,0,0,0,0,0,0,0,0,0,0,0,0,0,0,0,0,0,0,0,0,0,0,0,0,0,0,0,0,0,0,0,0,0,0,0,0,0,0,0,0.0108,0.011,0,0.0394,0.0398,0.0402,0.0597,0.0598,0.0598,0.0598,0.0967,0.0977,0.0986,0,0,0,0,0,0,0,0,0,0,0,0,0,-0.0172,-0.0167,0.0107,0.011,0.0112,0.0393,0.0398,0.0403,0.0597,0.0598,0.0598,0.0598,0.0964,0.0976,0.0987,0,0,0,0,0,0,0,0,0,0,0,0,0,0.0026,-0.0166,0.0107,0.0235,0.0248,0.0392,0.0399,0.0405,0.0597,0.0598,0.0598,0.0599,0.0961,0.0974,0.0988,0.1065,0,0,0.1032,0.1038,0,0,0,0,0,0,0,0,0.0014,0.0037,0.0213,0.0226,0.0241,0.0451,0.0435,0.0626,0.0597,0.0476,0.0598,0.0599,0.0795,0.0822,0.089,0.1082,0.1098,0.1033,0.1042,0.1048,0.1052,0,0,0,0,0,0,0,0.0,0.0026,0.0232,0.0216,0.0233,0.0311,0.034,0.0473,0.0639,0.0487,0.0499,0.0513,0.0805,0.0876,0.09,0.1103,0.1033,0.1045,0.1054,0.106,0.1378,0.1378,0,0,0,0,0,0,-0.0063,0.0013,0.0223,0.024,0.0114,0.0315,0.0348,0.0392,0.0636,0.067,0.0512,0.0521,0.0851,0.0883,0.0914,0.0983,0.1048,0.1061,0.1069,0.1378,0.1378,0.1378,0,0,0,0,0,0,-0.0069,-0.0046,0.0211,0.0122,0.0159,0.0317,0.0366,0.0397,0.0456,0.0652,0.069,0.0535,0.0853,0.0894,0.1034,0.1,0.1067,0.108,0.1378,0.1378,0.1378,0.1144,0,0,0,0,0,0,-0.0078,-0.0049,-0.0039,0.0119,0.0161,0.0278,0.0366,0.0402,0.0459,0.0473,0.0685,0.0721,0.0856,0.1012,0.1048,0.1021,0.1091,0.1378,0.1378,0.1378,0.1152,0.1136,0.1123,0,0,0,0,0,-0.0088,-0.0077,-0.0039,-0.0015,0.0171,0.0276,0.0306,0.0428,0.0458,0.0483,0.0632,0.0714,0.1036,0.1024,0.1067,0.1042,0.1378,0.1378,0.1378,0.1159,0.1139,0.1123,0,0,0,0,0,0,-0.0187,-0.0052,-0.0008,0.0046,0.0137,0.0304,0.0336,0.0402,0.054,0.0553,0.0733,0.0781,0.0886,0.1003,0.0985,0.1135,0.1213,0.1221,0.1031,0.1015,0.1,0.0976,0.1103,0,0,0,0,0,-0.0213,-0.0174,-0.0038,-0.0005,0.0039,0.0176,0.0229,0.0305,0.0439,0.05,0.0646,0.0797,0.0922,0.0996,0.1136,0.1226,0.1291,0.1234,0.1219,0.1206,0.1217,0.1265,0.1253,0.1377,0.1377,0.1377,0,0,-0.025,-0.0174,-0.0152,-0.0028,0.0061,0.0116,0.0214,0.0281,0.0322,0.0518,0.0628,0.0756,0.0936,0.1039,0.1094,0.113,0.1199,0.1206,0.1192,0.1212,0.1263,0.125,0.1239,0.1377,0.1377,0.1377,0,0,-0.0315,-0.0229,-0.022,-0.0144,-0.0041,0.0051,0.005,0.0206,0.0276,0.0389,0.0524,0.0635,0.0844,0.0958,0.1041,0.1031,0.1118,0.1059,0.0969,0.1012,0.1001,0.0992,0.1015,0.101,0.105,0.105,0.1049,0,-0.0368,-0.0323,-0.0207,-0.0173,-0.0128,0.0003,0.002,0.0114,0.0289,0.0337,0.0394,0.0666,0.0806,0.0914,0.0917,0.0993,0.1025,0.1008,0.0986,0.0979,0.0974,0.1001,0.0998,0.1038,0.104,0.1041,0.1042,0,-0.0416,-0.0378,-0.0366,-0.0278,-0.0216,-0.018,-0.005,0.0015,0.01,0.0199,0.0321,0.0516,0.0673,0.0714,0.0826,0.0856,0.0889,0.095,0.101,0.0946,0.098,0.0981,0.1022,0.1026,0.103,0.1032,0,0,-0.0525,-0.0424,-0.0419,-0.0401,-0.0269,-0.0224,-0.0165,-0.0067,-0.0037,0.0116,0.0169,0.0368,0.0458,0.0559,0.0685,0.0735,0.0715,0.0814,0.0821,0.08,0.0782,0.0837,0.0846,0.0751,0.0751,0.0751,0.08,0,-0.0598,-0.0592,-0.0506,-0.0496,-0.0474,-0.0341,-0.0296,-0.0196,-0.0086,0.0005,0.0165,0.0277,0.0399,0.0461,0.0524,0.069,0.0717,0.0696,0.0882,0.0888,0.0916,0.085,0.0902,0.0954,0.0803,0.0803,0.0803,0,-0.0666,-0.0649,-0.0666,-0.06,-0.0577,-0.0554,-0.0462,-0.04,-0.0249,-0.0163,-0.0041,0.0103,0.0231,0.0329,0.0526,0.0499,0.0618,0.0728,0.0733,0.0878,0.0949,0.101,0.0964,0.115,0.0808,0.0807,0.0807,0,-0.0804,-0.0757,-0.0788,-0.0759,-0.0662,-0.0652,-0.0599,-0.0464,-0.041,-0.0274,-0.0218,-0.0049,0.0053,0.0212,0.0473,0.048,0.0677,0.0717,0.0869,0.0873,0.101,0.1027,0.1147,0.082,0.082,0.082,0.082,0,-0.0903,-0.0917,-0.0861,-0.0867,-0.0887,-0.0781,-0.0771,-0.0683,-0.0569,-0.0503,-0.0323,-0.0228,0.0027,0.0201,0.0404,0.065,0.062,0.0846,0.0892,0.0929,0.0937,0.1185,0.1261,0.0822,0.0821,0.0821,0.0821,0,-0.1024,-0.0997,-0.1014,-0.0961,-0.0948,-0.0959,-0.0874,-0.0852,-0.0741,-0.0651,-0.0616,-0.038,-0.0147,0.0117,0.0398,0.0569,0.0914,0.0887,0.0907,0.0955,0.1249,0.1308,0.1492,0.1605,0.1026,0.1028,0.1029,0,-0.1083,-0.111,-0.1092,-0.1101,-0.1078,-0.107,-0.1052,-0.0949,-0.0902,-0.0715,-0.0675,-0.0449,-0.0225,0.0189,0.052,0.0841,0.1007,0.1057,0.1096,0.1265,0.1366,0.1405,0.149,0.1166,0.1169,0.1171,0.1173,0,-0.116,-0.1158,-0.116,-0.1193,-0.1199,-0.1195,-0.1158,-0.1153,-0.1008,-0.0908,-0.0719,-0.0539,-0.0117,0.0293,0.0701,0.0909,0.1192,0.1106,0.129,0.1491,0.1536,0.1667,0.1116,0.119,0.1189,0.1187,0.1186,0.1186,-0.1194,-0.1216,-0.122,-0.1248,-0.1268,-0.1281,-0.127,-0.1208,-0.1125,-0.0919,-0.0752,-0.0408,0.013,0.0731,0.0951,0.1411,0.1365,0.1561,0.1615,0.1636,0.1767,0.1239,0.1367,0.1366,0.1366,0.1365,0.1365,0,-0.1197,-0.1219,-0.126,-0.1286,-0.1323,-0.1317,-0.1296,-0.1241,-0.1131,-0.0884,-0.0651,0.0016,0.0557,0.1052,0.1666,0.1913,0.1975,0.2036,0.2117,0.2179,0.173,0.1761,0.1971,0.1971,0.197,0.197,0.197,0.197,-0.1193,-0.1219,-0.1244,-0.1302,-0.1332,-0.134,-0.1324,-0.1221,-0.103,-0.0585,-0.017,0.0171,0.0856,0.177,0.2333,0.239,0.2608,0.2579,0.2691,0.2398,0.2358,0.232,0.237,0.2704,0.2705,0.3144,0.3148,0.3152]}],[{"header":{"parameterUnit":"m.s-1","parameterCategory":2,"la1":30.2991,"la2":30.254,"lo1":-89.0895,"lo2":-89.0444,"dy":0.0017,"dx":0.0017,"nx":28,"ny":28,"refTime":"2026-01-04T03:00:00:Z","depth":"2","parameterNumber":2,"parameterNumberName":"U-component_of_CURRENTS"},"data":[0,0,0,0,0,0,0,0,0,0,0,0,0,0,0,0,0,0,0,0,0,0,0,0,0,0,0,0,0,0,0,0,0,0,0,0,0,0,0,0,0,0,0,0,0,0,0,0,0,0,0,0,0,0,0,0,0,0,-0.2887,-0.2889,0,-0.3038,-0.3039,-0.304,-0.3012,-0.301,-0.3008,-0.3006,-0.2868,-0.2866,-0.2865,0,0,0,0,0,0,0,0,0,0,0,0,0,-0.2765,-0.2766,-0.2887,-0.2889,-0.2892,-0.3038,-0.3039,-0.3041,-0.3013,-0.301,-0.3008,-0.3005,-0.2869,-0.2867,-0.2864,0,0,0,0,0,0,0,0,0,0,0,0,0,-0.285,-0.2766,-0.2886,-0.2901,-0.2904,-0.3038,-0.3039,-0.3041,-0.3013,-0.301,-0.3007,-0.3004,-0.2869,-0.2867,-0.2864,-0.2909,0,0,-0.2856,-0.2855,0,0,0,0,0,0,0,0,-0.2845,-0.2853,-0.2896,-0.29,-0.2904,-0.301,-0.2947,-0.2985,-0.3014,-0.2964,-0.3006,-0.3003,-0.2895,-0.2891,-0.292,-0.2903,-0.2897,-0.2856,-0.2854,-0.2853,-0.2852,0,0,0,0,0,0,0,-0.2839,-0.2848,-0.2939,-0.2899,-0.2904,-0.2966,-0.2972,-0.2955,-0.2934,-0.2968,-0.2968,-0.2998,-0.2894,-0.2923,-0.2915,-0.2895,-0.2856,-0.2854,-0.2852,-0.2851,-0.2828,-0.2829,0,0,0,0,0,0,-0.2828,-0.2842,-0.2935,-0.2945,-0.2875,-0.297,-0.2977,-0.2973,-0.2941,-0.2937,-0.3,-0.2996,-0.2929,-0.2919,-0.291,-0.2932,-0.2853,-0.2851,-0.2849,-0.2827,-0.2828,-0.2829,0,0,0,0,0,0,-0.2824,-0.2834,-0.2929,-0.2904,-0.2921,-0.2975,-0.2971,-0.2978,-0.3,-0.297,-0.2958,-0.3016,-0.2926,-0.2914,-0.2884,-0.2927,-0.2849,-0.2847,-0.2826,-0.2827,-0.2829,-0.2994,0,0,0,0,0,0,-0.282,-0.283,-0.2854,-0.2902,-0.2923,-0.2984,-0.2975,-0.2983,-0.3027,-0.3022,-0.298,-0.2965,-0.2923,-0.2889,-0.2882,-0.2922,-0.2845,-0.2825,-0.2827,-0.2828,-0.2987,-0.3001,-0.3012,0,0,0,0,0,-0.2814,-0.2848,-0.2852,-0.2867,-0.294,-0.2985,-0.3,-0.3025,-0.3031,-0.3035,-0.3012,-0.2965,-0.2895,-0.2888,-0.2879,-0.292,-0.2824,-0.2826,-0.2828,-0.2981,-0.2998,-0.3012,0,0,0,0,0,0,-0.2796,-0.2851,-0.2856,-0.29,-0.2931,-0.2982,-0.3018,-0.3038,-0.3037,-0.303,-0.2984,-0.2968,-0.2974,-0.2912,-0.2906,-0.2914,-0.285,-0.2851,-0.2969,-0.2984,-0.2997,-0.2984,-0.2843,0,0,0,0,0,-0.2809,-0.2839,-0.2887,-0.2914,-0.2935,-0.298,-0.3017,-0.3029,-0.3036,-0.3035,-0.3021,-0.2992,-0.2985,-0.2951,-0.294,-0.2933,-0.2866,-0.2948,-0.2961,-0.2972,-0.2953,-0.2933,-0.2943,-0.2837,-0.2836,-0.2836,0,0,-0.2805,-0.2844,-0.2859,-0.2914,-0.2943,-0.2982,-0.299,-0.3035,-0.307,-0.3018,-0.3055,-0.3052,-0.2999,-0.3012,-0.3004,-0.2953,-0.2961,-0.2975,-0.2985,-0.2959,-0.2936,-0.2947,-0.2956,-0.2838,-0.2838,-0.2837,0,0,-0.281,-0.2844,-0.2873,-0.2901,-0.2961,-0.2999,-0.301,-0.307,-0.3093,-0.3131,-0.312,-0.3135,-0.3109,-0.3099,-0.3082,-0.3148,-0.3054,-0.3137,-0.3166,-0.315,-0.3158,-0.3165,-0.3074,-0.3072,-0.3115,-0.3116,-0.3116,0,-0.2809,-0.2842,-0.2886,-0.2917,-0.2953,-0.3001,-0.3031,-0.3078,-0.3124,-0.3148,-0.3141,-0.3175,-0.3156,-0.3166,-0.3197,-0.3183,-0.3118,-0.3124,-0.3169,-0.3174,-0.3179,-0.3083,-0.3078,-0.3124,-0.3123,-0.3122,-0.3121,0,-0.2818,-0.286,-0.2875,-0.2929,-0.2973,-0.3004,-0.307,-0.3118,-0.3169,-0.3216,-0.3266,-0.3268,-0.3264,-0.3289,-0.3264,-0.3292,-0.3219,-0.3219,-0.3139,-0.32,-0.3094,-0.3086,-0.3136,-0.3133,-0.313,-0.3128,0,0,-0.2762,-0.2866,-0.2867,-0.2895,-0.2981,-0.3006,-0.3082,-0.3156,-0.3187,-0.3266,-0.329,-0.336,-0.3372,-0.3352,-0.3345,-0.3336,-0.3341,-0.3285,-0.328,-0.3206,-0.3236,-0.3146,-0.3127,-0.335,-0.335,-0.335,-0.3143,0,-0.2749,-0.281,-0.2873,-0.2923,-0.2958,-0.3029,-0.3083,-0.3157,-0.3222,-0.326,-0.3311,-0.3336,-0.339,-0.3381,-0.3401,-0.3357,-0.3328,-0.3391,-0.3174,-0.3165,-0.3092,-0.312,-0.2916,-0.2712,-0.3135,-0.3133,-0.3132,0,-0.2733,-0.2779,-0.283,-0.2919,-0.2936,-0.2975,-0.3054,-0.3108,-0.3189,-0.3229,-0.3288,-0.3317,-0.3345,-0.3365,-0.3334,-0.3365,-0.3309,-0.3273,-0.3264,-0.3112,-0.3063,-0.272,-0.268,-0.3118,-0.3119,-0.312,-0.3121,0,-0.2657,-0.275,-0.2792,-0.2815,-0.2918,-0.2948,-0.3004,-0.3096,-0.313,-0.3195,-0.3203,-0.3265,-0.3251,-0.3249,-0.3233,-0.3265,-0.3148,-0.3175,-0.3029,-0.3018,-0.2763,-0.2731,-0.3127,-0.3127,-0.3128,-0.3128,-0.3129,0,-0.2622,-0.2645,-0.2756,-0.2759,-0.2789,-0.2887,-0.2916,-0.2981,-0.3045,-0.3059,-0.3168,-0.3161,-0.3226,-0.3192,-0.3181,-0.3071,-0.3109,-0.3016,-0.2971,-0.2811,-0.2787,-0.308,-0.3077,-0.312,-0.3122,-0.3124,-0.3125,0,-0.2525,-0.2604,-0.2636,-0.2728,-0.2752,-0.2764,-0.2845,-0.2858,-0.2945,-0.2949,-0.2962,-0.3049,-0.3014,-0.3036,-0.2981,-0.2965,-0.2889,-0.2832,-0.261,-0.2546,-0.2768,-0.2776,-0.263,-0.2625,-0.2621,-0.2618,-0.2615,0,-0.2475,-0.2491,-0.2566,-0.2567,-0.2602,-0.2643,-0.2659,-0.2778,-0.2795,-0.2874,-0.2847,-0.2851,-0.2817,-0.2709,-0.2676,-0.2581,-0.2721,-0.2343,-0.2406,-0.2751,-0.2722,-0.2737,-0.275,-0.2101,-0.2095,-0.2089,-0.2085,0,-0.2354,-0.239,-0.2404,-0.2412,-0.2429,-0.2451,-0.2493,-0.2498,-0.2616,-0.2626,-0.2622,-0.2601,-0.253,-0.2368,-0.228,-0.2224,-0.236,-0.2228,-0.2618,-0.2295,-0.2247,-0.2222,-0.2252,-0.2036,-0.2041,-0.2044,-0.2047,-0.2049,-0.2231,-0.2211,-0.223,-0.2225,-0.2247,-0.2238,-0.2201,-0.2258,-0.2253,-0.2245,-0.234,-0.2241,-0.2234,-0.2,-0.1901,-0.1843,-0.2015,-0.1949,-0.1968,-0.1993,-0.2005,-0.1958,-0.1687,-0.169,-0.1692,-0.1695,-0.1696,0,-0.2065,-0.2055,-0.2039,-0.2024,-0.1981,-0.2057,-0.2058,-0.1997,-0.1936,-0.1962,-0.1936,-0.1735,-0.1617,-0.1624,-0.1451,-0.1427,-0.1437,-0.1378,-0.1398,-0.1445,-0.1488,-0.1479,-0.1019,-0.1017,-0.1015,-0.1014,0,0,-0.1965,-0.1885,-0.1883,-0.1757,-0.175,-0.1644,-0.1613,-0.1559,-0.1539,-0.1437,-0.1393,-0.1515,-0.155,-0.1284,-0.1225,-0.1089,-0.1256,-0.1032,-0.157,-0.1638,-0.1678,-0.1805,-0.1842,0,0,0,0,0]},{"header":{"parameterUnit":"m.s-1","parameterCategory":2,"la1":30.2991,"la2":30.254,"lo1":-89.0895,"lo2":-89.0444,"dy":0.0017,"dx":0.0017,"nx":28,"ny":28,"refTime":"2026-01-04T03:00:00:Z","depth":"2","parameterNumber":3,"parameterNumberName":"V-component_of_CURRENTS"},"data":[0,0,0,0,0,0,0,0,0,0,0,0,0,0,0,0,0,0,0,0,0,0,0,0,0,0,0,0,0,0,0,0,0,0,0,0,0,0,0,0,0,0,0,0,0,0,0,0,0,0,0,0,0,0,0,0,0,0,-0.0404,-0.0402,0,-0.0235,-0.0233,-0.0231,-0.0162,-0.0163,-0.0163,-0.0164,-0.0043,-0.004,-0.0036,0,0,0,0,0,0,0,0,0,0,0,0,0,-0.0554,-0.0552,-0.0404,-0.0402,-0.04,-0.0235,-0.0233,-0.023,-0.0162,-0.0163,-0.0163,-0.0164,-0.0045,-0.004,-0.0036,0,0,0,0,0,0,0,0,0,0,0,0,0,-0.0447,-0.0552,-0.0404,-0.0347,-0.034,-0.0236,-0.0233,-0.023,-0.0162,-0.0163,-0.0164,-0.0164,-0.0046,-0.0041,-0.0035,0.0012,0,0,-0.0019,-0.0016,0,0,0,0,0,0,0,0,-0.0453,-0.0442,-0.0357,-0.035,-0.0343,-0.0221,-0.0241,-0.0151,-0.0162,-0.0229,-0.0164,-0.0165,-0.0107,-0.0097,-0.0062,0.0018,0.0023,-0.0018,-0.0015,-0.0013,-0.0011,0,0,0,0,0,0,0,-0.0461,-0.0448,-0.0336,-0.0355,-0.0346,-0.029,-0.0277,-0.0223,-0.0167,-0.0223,-0.0218,-0.02,-0.0104,-0.0067,-0.0059,0.0025,-0.0018,-0.0014,-0.001,-0.0008,0.0115,0.0115,0,0,0,0,0,0,-0.0488,-0.0455,-0.0342,-0.0331,-0.0402,-0.0288,-0.0272,-0.0259,-0.0166,-0.0152,-0.02,-0.0197,-0.0076,-0.0065,-0.0054,-0.0011,-0.0013,-0.0008,-0.0004,0.0115,0.0115,0.0115,0,0,0,0,0,0,-0.0492,-0.048,-0.0348,-0.039,-0.0369,-0.0285,-0.027,-0.0255,-0.0221,-0.0148,-0.0135,-0.0181,-0.0076,-0.0062,-0.0021,-0.0006,-0.0005,-0.0,0.0115,0.0115,0.0115,0.0087,0,0,0,0,0,0,-0.0497,-0.0482,-0.0472,-0.0392,-0.0368,-0.0308,-0.0269,-0.0251,-0.0209,-0.0205,-0.0128,-0.0117,-0.0076,-0.0029,-0.0016,0.0002,0.0004,0.0115,0.0115,0.0115,0.0088,0.0086,0.0084,0,0,0,0,0,-0.0503,-0.0494,-0.0473,-0.0458,-0.036,-0.0309,-0.0292,-0.0233,-0.0208,-0.0202,-0.015,-0.0119,-0.002,-0.0025,-0.0009,0.0011,0.0115,0.0115,0.0115,0.0089,0.0086,0.0085,0,0,0,0,0,0,-0.0556,-0.0483,-0.0459,-0.0429,-0.0383,-0.0298,-0.0278,-0.0235,-0.0183,-0.0185,-0.0114,-0.0099,-0.0049,-0.0025,-0.0032,0.0043,0.0051,0.0054,0.0026,0.0024,0.0022,-0.0007,0.0009,0,0,0,0,0,-0.0563,-0.054,-0.0469,-0.045,-0.043,-0.0354,-0.032,-0.0288,-0.0233,-0.021,-0.0145,-0.009,-0.0033,-0.0013,0.0042,0.0078,0.0114,0.0098,0.0096,0.0094,0.008,0.0162,0.0167,0.0114,0.0114,0.0114,0,0,-0.0584,-0.0537,-0.0527,-0.046,-0.0418,-0.0395,-0.0336,-0.0305,-0.0278,-0.0206,-0.0147,-0.0084,-0.0022,0.0026,0.0048,0.0044,0.0126,0.0094,0.0093,0.0079,0.0163,0.0168,0.0173,0.0114,0.0114,0.0114,0,0,-0.0619,-0.0572,-0.0568,-0.0533,-0.0477,-0.043,-0.0427,-0.0344,-0.0302,-0.0246,-0.0179,-0.0113,-0.0033,0.0024,0.0059,0.0077,0.0125,0.0089,0.005,0.013,0.0136,0.0141,0.0185,0.0195,0.0076,0.0076,0.0076,0,-0.0643,-0.0624,-0.0561,-0.0548,-0.0525,-0.0454,-0.0453,-0.0395,-0.0306,-0.0268,-0.0245,-0.0089,-0.003,0.0041,0.0044,0.0077,0.011,0.0056,0.0129,0.0135,0.0141,0.0186,0.0196,0.0074,0.0074,0.0075,0.0075,0,-0.0679,-0.0659,-0.0657,-0.0617,-0.0586,-0.0578,-0.0503,-0.0457,-0.0394,-0.0325,-0.0229,-0.0133,-0.0048,-0.001,0.0022,0.0091,0.0098,0.0131,0.0135,0.0144,0.0191,0.0202,0.0072,0.0073,0.0073,0.0074,0,0,-0.0736,-0.0692,-0.0689,-0.0684,-0.0625,-0.0605,-0.0564,-0.0495,-0.0455,-0.0355,-0.0292,-0.0172,-0.0107,-0.0066,0.0005,0.0067,0.0146,0.0097,0.0102,0.0141,0.0295,0.0319,0.0335,0.0192,0.0194,0.0195,0.0308,0,-0.0781,-0.0787,-0.0744,-0.0749,-0.0746,-0.0674,-0.0636,-0.0566,-0.0482,-0.04,-0.0284,-0.0198,-0.0132,-0.0089,-0.0011,0.0113,0.0175,0.011,0.0279,0.0283,0.0306,0.0349,0.0307,0.0407,0.032,0.0322,0.0323,0,-0.0825,-0.0816,-0.084,-0.0804,-0.0796,-0.0787,-0.0717,-0.0672,-0.0548,-0.0479,-0.0376,-0.0278,-0.0162,-0.011,0.0097,0.0048,0.0158,0.025,0.0258,0.0295,0.033,0.0386,0.0431,0.0343,0.0342,0.034,0.0339,0,-0.0896,-0.0879,-0.0903,-0.0894,-0.0845,-0.0835,-0.0803,-0.0699,-0.0651,-0.0531,-0.0479,-0.0326,-0.0239,-0.0082,0.0115,0.0105,0.0335,0.0354,0.0479,0.048,0.0484,0.0483,0.0497,0.0496,0.0496,0.0496,0.0496,0,-0.0953,-0.0963,-0.094,-0.0951,-0.0961,-0.0904,-0.0885,-0.0821,-0.0727,-0.0667,-0.0528,-0.0443,-0.0226,-0.0063,0.0098,0.0327,0.0335,0.0477,0.0522,0.0472,0.0468,0.0442,0.0434,0.05,0.0499,0.0498,0.0498,0,-0.1017,-0.1009,-0.1026,-0.1001,-0.0997,-0.1003,-0.0955,-0.0927,-0.0831,-0.0751,-0.0719,-0.0522,-0.0306,-0.0086,0.0179,0.0315,0.0521,0.0599,0.0506,0.0539,0.0607,0.0596,0.0737,0.0739,0.0741,0.0742,0.0743,0,-0.105,-0.1069,-0.1074,-0.109,-0.1083,-0.1079,-0.107,-0.0991,-0.0952,-0.0784,-0.0748,-0.0536,-0.0355,0.0029,0.0291,0.0572,0.0585,0.0689,0.0675,0.0607,0.0637,0.0623,0.0611,0.0664,0.0664,0.0665,0.0665,0,-0.1093,-0.1099,-0.1111,-0.115,-0.1165,-0.1169,-0.1148,-0.1137,-0.1022,-0.0928,-0.0765,-0.0616,-0.0249,0.0056,0.0407,0.0568,0.0636,0.0705,0.0694,0.0605,0.0548,0.0573,0.0562,0.0669,0.0668,0.0668,0.0668,0.0668,-0.1115,-0.1138,-0.116,-0.1193,-0.122,-0.1237,-0.123,-0.1181,-0.111,-0.094,-0.0798,-0.0533,-0.0257,0.025,0.049,0.071,0.0712,0.0767,0.0763,0.0759,0.0726,0.0674,0.0811,0.0811,0.0812,0.0812,0.0812,0,-0.1124,-0.1151,-0.1193,-0.1232,-0.1268,-0.127,-0.1256,-0.1211,-0.112,-0.0937,-0.0747,-0.0409,-0.0064,0.0231,0.0579,0.0781,0.076,0.081,0.0737,0.0733,0.073,0.0692,0.077,0.0771,0.0771,0.0772,0,0,-0.1126,-0.1161,-0.1185,-0.125,-0.1284,-0.1299,-0.1288,-0.12,-0.1061,-0.0868,-0.0663,-0.0398,-0.0043,0.0193,0.044,0.0618,0.0622,0.0632,0.0645,0.0525,0.0519,0.0685,0.062,0,0,0,0,0]}],[{"header":{"parameterUnit":"m.s-1","parameterCategory":2,"la1":30.2991,"la2":30.254,"lo1":-89.0895,"lo2":-89.0444,"dy":0.0017,"dx":0.0017,"nx":28,"ny":28,"refTime":"2026-01-04T03:00:00:Z","depth":"4","parameterNumber":2,"parameterNumberName":"U-component_of_CURRENTS"},"data":[0,0,0,0,0,0,0,0,0,0,0,0,0,0,0,0,0,0,0,0,0,0,0,0,0,0,0,0,0,0,0,0,0,0,0,0,0,0,0,0,0,0,0,0,0,0,0,0,0,0,0,0,0,0,0,0,0,0,-0.1637,-0.1637,0,-0.1653,-0.1653,-0.1652,-0.1605,-0.1604,-0.1604,-0.1603,-0.1619,-0.162,-0.1621,0,0,0,0,0,0,0,0,0,0,0,0,0,-0.1546,-0.1547,-0.1636,-0.1637,-0.1638,-0.1653,-0.1653,-0.1652,-0.1605,-0.1604,-0.1603,-0.1603,-0.1618,-0.162,-0.1621,0,0,0,0,0,0,0,0,0,0,0,0,0,-0.1568,-0.1548,-0.1636,-0.1623,-0.1623,-0.1654,-0.1653,-0.1652,-0.1605,-0.1604,-0.1603,-0.1602,-0.1618,-0.1619,-0.1621,-0.165,0,0,-0.1626,-0.1626,0,0,0,0,0,0,0,0,-0.1567,-0.157,-0.1624,-0.1624,-0.1624,-0.1634,-0.1627,-0.1654,-0.1606,-0.1603,-0.1603,-0.1602,-0.163,-0.1631,-0.1623,-0.1651,-0.1652,-0.1626,-0.1627,-0.1627,-0.1628,0,0,0,0,0,0,0,-0.1565,-0.1569,-0.1634,-0.1626,-0.1625,-0.1611,-0.1612,-0.1631,-0.1615,-0.1603,-0.1602,-0.1618,-0.1629,-0.1622,-0.1624,-0.1652,-0.1626,-0.1627,-0.1628,-0.1629,-0.1739,-0.1741,0,0,0,0,0,0,-0.1583,-0.1568,-0.1634,-0.1636,-0.1602,-0.1614,-0.1615,-0.1624,-0.1615,-0.1615,-0.1619,-0.1616,-0.162,-0.1622,-0.1624,-0.1708,-0.1627,-0.1629,-0.163,-0.1737,-0.174,-0.1742,0,0,0,0,0,0,-0.1581,-0.1589,-0.1633,-0.1609,-0.1615,-0.1618,-0.1628,-0.1626,-0.1645,-0.1628,-0.1626,-0.1645,-0.1619,-0.1622,-0.165,-0.1706,-0.163,-0.1631,-0.1735,-0.1738,-0.1741,-0.1845,0,0,0,0,0,0,-0.1578,-0.1587,-0.1611,-0.1611,-0.1618,-0.166,-0.163,-0.1627,-0.1659,-0.1656,-0.165,-0.1649,-0.1619,-0.1648,-0.1652,-0.1707,-0.1632,-0.1732,-0.1736,-0.174,-0.1839,-0.1851,-0.1861,0,0,0,0,0,-0.1575,-0.16,-0.1612,-0.1621,-0.1646,-0.1662,-0.1663,-0.1655,-0.1662,-0.1669,-0.1667,-0.165,-0.1675,-0.1651,-0.1655,-0.1712,-0.1731,-0.1735,-0.174,-0.1834,-0.1848,-0.1861,0,0,0,0,0,0,-0.1567,-0.1599,-0.1611,-0.1644,-0.1663,-0.1657,-0.1674,-0.1683,-0.1688,-0.1694,-0.1673,-0.1671,-0.1721,-0.1703,-0.1677,-0.1754,-0.1703,-0.1708,-0.1773,-0.1787,-0.1798,-0.1806,-0.1634,0,0,0,0,0,-0.1584,-0.1611,-0.1636,-0.1664,-0.1679,-0.169,-0.1705,-0.1706,-0.1711,-0.1713,-0.172,-0.1727,-0.1741,-0.1751,-0.1758,-0.1802,-0.178,-0.1842,-0.1853,-0.1863,-0.1872,-0.1877,-0.1889,-0.1757,-0.1757,-0.1757,0,0,-0.1592,-0.1614,-0.1631,-0.1666,-0.1679,-0.1709,-0.1693,-0.1725,-0.1757,-0.1718,-0.177,-0.1775,-0.1763,-0.1804,-0.1826,-0.1796,-0.1892,-0.1869,-0.1877,-0.1881,-0.1883,-0.1896,-0.1907,-0.176,-0.1759,-0.1759,0,0,-0.1608,-0.164,-0.1667,-0.1692,-0.1733,-0.1741,-0.1765,-0.1792,-0.1808,-0.1861,-0.1843,-0.1881,-0.1908,-0.1906,-0.1908,-0.1992,-0.1955,-0.2002,-0.2064,-0.2069,-0.208,-0.2089,-0.2085,-0.2093,-0.2002,-0.2003,-0.2003,0,-0.1616,-0.1655,-0.1676,-0.1711,-0.1744,-0.1766,-0.1805,-0.1828,-0.1865,-0.189,-0.1891,-0.1958,-0.1958,-0.2002,-0.2026,-0.2022,-0.2006,-0.2012,-0.2084,-0.2092,-0.21,-0.2093,-0.21,-0.2008,-0.2007,-0.2007,-0.2006,0,-0.1648,-0.1692,-0.1711,-0.1764,-0.1801,-0.1837,-0.1882,-0.1928,-0.1971,-0.1992,-0.2068,-0.2076,-0.2108,-0.2128,-0.2104,-0.2167,-0.2133,-0.2101,-0.2048,-0.2119,-0.2107,-0.2113,-0.2016,-0.2014,-0.2012,-0.2011,0,0,-0.1624,-0.1715,-0.1727,-0.1767,-0.1837,-0.1866,-0.1939,-0.1998,-0.2049,-0.2108,-0.2171,-0.2225,-0.2237,-0.2241,-0.2235,-0.2249,-0.2299,-0.2203,-0.2201,-0.2197,-0.2303,-0.2129,-0.2118,-0.2272,-0.2274,-0.2275,-0.2275,0,-0.164,-0.1717,-0.1763,-0.1843,-0.1883,-0.1943,-0.2007,-0.207,-0.2122,-0.2185,-0.2226,-0.2279,-0.2276,-0.2303,-0.2324,-0.2301,-0.2317,-0.2301,-0.2236,-0.2234,-0.2069,-0.212,-0.228,-0.2279,-0.228,-0.2281,-0.2282,0,-0.1647,-0.1703,-0.1787,-0.189,-0.1916,-0.1976,-0.2083,-0.2142,-0.2224,-0.2268,-0.2332,-0.2349,-0.2405,-0.2383,-0.2405,-0.239,-0.2364,-0.2345,-0.2343,-0.2147,-0.207,-0.2191,-0.2291,-0.229,-0.229,-0.2289,-0.2289,0,-0.1605,-0.1714,-0.1787,-0.1824,-0.1943,-0.2007,-0.2076,-0.2171,-0.2221,-0.2317,-0.2356,-0.242,-0.245,-0.245,-0.2419,-0.2416,-0.2412,-0.2393,-0.2219,-0.2207,-0.2317,-0.2307,-0.2408,-0.2408,-0.2408,-0.2408,-0.2408,0,-0.1579,-0.1643,-0.1782,-0.182,-0.1914,-0.2008,-0.2103,-0.2177,-0.2274,-0.2308,-0.2394,-0.2414,-0.2466,-0.246,-0.2437,-0.2332,-0.2425,-0.2237,-0.2195,-0.2361,-0.2356,-0.2321,-0.2311,-0.2408,-0.2408,-0.2408,-0.2408,0,-0.1512,-0.1602,-0.1692,-0.1842,-0.1892,-0.1963,-0.2105,-0.2152,-0.2266,-0.2314,-0.2344,-0.2418,-0.2399,-0.2416,-0.2398,-0.2323,-0.2261,-0.22,-0.2378,-0.2346,-0.2056,-0.2052,-0.2019,-0.2013,-0.2008,-0.2004,-0.2,0,-0.1479,-0.1521,-0.1692,-0.1736,-0.1809,-0.1926,-0.1984,-0.2127,-0.2159,-0.2278,-0.2268,-0.2308,-0.2327,-0.2169,-0.2213,-0.2153,-0.2121,-0.2091,-0.2085,-0.2053,-0.2018,-0.2021,-0.2024,-0.1992,-0.199,-0.1989,-0.1988,0,-0.1413,-0.1492,-0.1563,-0.1655,-0.1734,-0.1808,-0.1901,-0.1915,-0.2044,-0.217,-0.2121,-0.21,-0.2067,-0.2041,-0.1998,-0.196,-0.2116,-0.2037,-0.2048,-0.2042,-0.202,-0.199,-0.1999,-0.197,-0.1972,-0.1974,-0.1975,0,-0.1359,-0.139,-0.148,-0.1544,-0.1631,-0.1645,-0.1725,-0.1748,-0.1803,-0.1934,-0.1907,-0.195,-0.2026,-0.1937,-0.1902,-0.1844,-0.1822,-0.1772,-0.1797,-0.1818,-0.1749,-0.1691,-0.1506,0,0,0,0,0,-0.1287,-0.1298,-0.1351,-0.1405,-0.1482,-0.1523,-0.1634,-0.1709,-0.1839,-0.1744,-0.1821,-0.1776,-0.1722,-0.1755,-0.165,-0.1817,-0.1836,-0.1691,-0.1794,-0.187,-0.1891,-0.1828,0,0,0,0,0,0,-0.1227,-0.1283,-0.1301,-0.1266,-0.1268,-0.1327,-0.1387,-0.148,-0.1441,-0.1578,-0.155,-0.1658,-0.1626,-0.1733,-0.1604,-0.1614,-0.1641,-0.1734,-0.1729,-0.1858,-0.1877,-0.1894,-0.1836,0,0,0,0,0]},{"header":{"parameterUnit":"m.s-1","parameterCategory":2,"la1":30.2991,"la2":30.254,"lo1":-89.0895,"lo2":-89.0444,"dy":0.0017,"dx":0.0017,"nx":28,"ny":28,"refTime":"2026-01-04T03:00:00:Z","depth":"4","parameterNumber":3,"parameterNumberName":"V-component_of_CURRENTS"},"data":[0,0,0,0,0,0,0,0,0,0,0,0,0,0,0,0,0,0,0,0,0,0,0,0,0,0,0,0,0,0,0,0,0,0,0,0,0,0,0,0,0,0,0,0,0,0,0,0,0,0,0,0,0,0,0,0,0,0,-0.0424,-0.0423,0,-0.0383,-0.0383,-0.0383,-0.0377,-0.0377,-0.0377,-0.0378,-0.0309,-0.0307,-0.0305,0,0,0,0,0,0,0,0,0,0,0,0,0,-0.0456,-0.0456,-0.0424,-0.0423,-0.0422,-0.0383,-0.0383,-0.0383,-0.0377,-0.0377,-0.0377,-0.0378,-0.031,-0.0308,-0.0305,0,0,0,0,0,0,0,0,0,0,0,0,0,-0.0434,-0.0456,-0.0424,-0.0412,-0.0411,-0.0383,-0.0383,-0.0383,-0.0377,-0.0377,-0.0377,-0.0378,-0.0311,-0.0308,-0.0305,-0.0285,0,0,-0.0296,-0.0295,0,0,0,0,0,0,0,0,-0.0435,-0.0434,-0.0415,-0.0413,-0.0411,-0.0382,-0.0369,-0.0347,-0.0377,-0.0393,-0.0378,-0.0378,-0.0329,-0.0325,-0.0322,-0.0282,-0.0279,-0.0296,-0.0294,-0.0293,-0.0292,0,0,0,0,0,0,0,-0.0437,-0.0435,-0.0411,-0.0414,-0.0412,-0.0395,-0.0393,-0.0365,-0.0363,-0.0392,-0.0391,-0.0381,-0.0328,-0.0325,-0.032,-0.0278,-0.0296,-0.0294,-0.0292,-0.0291,-0.0236,-0.0237,0,0,0,0,0,0,-0.0437,-0.0437,-0.0412,-0.0409,-0.042,-0.0394,-0.0392,-0.0394,-0.0364,-0.0359,-0.0381,-0.0381,-0.0329,-0.0323,-0.0317,-0.0299,-0.0293,-0.029,-0.0289,-0.0236,-0.0236,-0.0237,0,0,0,0,0,0,-0.0439,-0.0436,-0.0414,-0.0419,-0.0414,-0.0393,-0.0396,-0.0393,-0.0391,-0.0355,-0.035,-0.0381,-0.0329,-0.0321,-0.0304,-0.0296,-0.0289,-0.0287,-0.0236,-0.0236,-0.0237,-0.0258,0,0,0,0,0,0,-0.044,-0.0437,-0.044,-0.0419,-0.0414,-0.0406,-0.0395,-0.0392,-0.0383,-0.0382,-0.0353,-0.0347,-0.0329,-0.0308,-0.0301,-0.0292,-0.0284,-0.0235,-0.0236,-0.0236,-0.0257,-0.0259,-0.0261,0,0,0,0,0,-0.0441,-0.0446,-0.0441,-0.0438,-0.0419,-0.0406,-0.0403,-0.0389,-0.0383,-0.0387,-0.0369,-0.0348,-0.0306,-0.0306,-0.0298,-0.0288,-0.0235,-0.0236,-0.0236,-0.0256,-0.0259,-0.0261,0,0,0,0,0,0,-0.0467,-0.0445,-0.0439,-0.0439,-0.0426,-0.0404,-0.0404,-0.0391,-0.038,-0.0385,-0.035,-0.0343,-0.0325,-0.0306,-0.0307,-0.0276,-0.0267,-0.0266,-0.0285,-0.0287,-0.0289,-0.0294,-0.0282,0,0,0,0,0,-0.0472,-0.0471,-0.0448,-0.0451,-0.0445,-0.0424,-0.0416,-0.0412,-0.0396,-0.0392,-0.0366,-0.0343,-0.032,-0.0305,-0.0287,-0.0265,-0.0221,-0.0255,-0.0257,-0.0258,-0.0258,-0.0188,-0.0183,-0.0239,-0.0239,-0.0239,0,0,-0.0486,-0.047,-0.0473,-0.0456,-0.0446,-0.0445,-0.0422,-0.0421,-0.0417,-0.0385,-0.0374,-0.035,-0.0318,-0.0301,-0.029,-0.0283,-0.0219,-0.0259,-0.0261,-0.0259,-0.0188,-0.0183,-0.0177,-0.0239,-0.0239,-0.0239,0,0,-0.0509,-0.0498,-0.0504,-0.0494,-0.048,-0.0467,-0.0467,-0.0447,-0.0436,-0.0421,-0.0398,-0.0368,-0.0335,-0.0307,-0.0288,-0.0287,-0.0235,-0.0285,-0.0291,-0.0224,-0.0218,-0.0213,-0.0142,-0.013,-0.0282,-0.0282,-0.0282,0,-0.0524,-0.0529,-0.0505,-0.0506,-0.0502,-0.0478,-0.0487,-0.0471,-0.0448,-0.0433,-0.0425,-0.0359,-0.0333,-0.0293,-0.03,-0.0288,-0.0244,-0.0283,-0.0224,-0.0218,-0.0212,-0.014,-0.0127,-0.0283,-0.0283,-0.0283,-0.0283,0,-0.055,-0.0555,-0.0558,-0.0552,-0.0544,-0.0552,-0.0524,-0.0513,-0.0491,-0.0468,-0.0425,-0.0381,-0.0339,-0.0324,-0.0313,-0.0261,-0.0242,-0.0237,-0.0215,-0.0207,-0.0133,-0.0118,-0.0284,-0.0284,-0.0284,-0.0283,0,0,-0.0581,-0.0579,-0.0581,-0.0587,-0.0572,-0.057,-0.0559,-0.0536,-0.0518,-0.0481,-0.0445,-0.0396,-0.0365,-0.0342,-0.0308,-0.025,-0.0169,-0.0233,-0.0229,-0.0157,-0.0014,-0.0044,-0.003,-0.0154,-0.0152,-0.015,0.0025,0,-0.061,-0.0632,-0.0617,-0.0638,-0.0645,-0.0617,-0.0604,-0.058,-0.0541,-0.05,-0.0435,-0.0394,-0.0372,-0.0346,-0.0286,-0.0203,-0.0134,-0.0217,-0.0038,-0.0032,-0.0054,-0.0016,-0.0143,0.0036,0.0039,0.0042,0.0043,0,-0.0636,-0.0646,-0.0679,-0.0675,-0.0675,-0.0683,-0.0654,-0.0639,-0.0574,-0.0537,-0.0476,-0.0423,-0.0337,-0.032,-0.0149,-0.0205,-0.0116,-0.0043,-0.0034,-0.0046,-0.0035,0.0024,0.007,0.0068,0.0066,0.0064,0.0063,0,-0.0669,-0.0684,-0.0715,-0.0717,-0.0711,-0.0715,-0.0709,-0.0658,-0.0637,-0.0559,-0.0523,-0.0416,-0.0354,-0.023,-0.0092,-0.0113,0.0102,0.0097,0.0165,0.0165,0.0149,0.0142,0.0227,0.0227,0.0227,0.0226,0.0226,0,-0.0694,-0.0717,-0.0739,-0.0755,-0.0782,-0.0759,-0.0762,-0.073,-0.0675,-0.0641,-0.0551,-0.0486,-0.033,-0.0196,-0.0076,0.0091,0.0124,0.0177,0.021,0.0136,0.0125,0.0161,0.0151,0.0233,0.0231,0.023,0.0229,0,-0.0716,-0.0735,-0.0771,-0.079,-0.0802,-0.0821,-0.0818,-0.0804,-0.0743,-0.069,-0.0665,-0.0523,-0.0349,-0.0181,0.0037,0.0111,0.0274,0.0325,0.0247,0.027,0.0292,0.0279,0.0426,0.0427,0.0427,0.0427,0.0428,0,-0.0729,-0.0753,-0.0809,-0.084,-0.0856,-0.088,-0.0891,-0.0851,-0.0826,-0.0706,-0.0677,-0.0508,-0.0399,-0.0095,0.0059,0.0306,0.0321,0.0407,0.0334,0.0297,0.0314,0.03,0.0287,0.0428,0.0428,0.0428,0.0429,0,-0.0744,-0.0775,-0.0807,-0.0876,-0.0913,-0.0938,-0.0947,-0.0932,-0.0861,-0.081,-0.0656,-0.0496,-0.0303,-0.0096,0.0095,0.0262,0.0349,0.0411,0.0411,0.0343,0.0301,0.0315,0.0301,0.043,0.043,0.043,0.043,0,-0.0755,-0.0787,-0.0842,-0.0892,-0.0949,-0.0972,-0.0975,-0.0923,-0.0886,-0.0748,-0.07,-0.0481,-0.0355,-0.0116,0.006,0.0219,0.0243,0.0274,0.0281,0.0281,0.0163,0.0084,0.0188,0,0,0,0,0,-0.0754,-0.079,-0.0848,-0.0904,-0.0962,-0.0988,-0.0995,-0.0978,-0.0916,-0.0811,-0.0747,-0.056,-0.0285,-0.0165,-0.0008,0.0038,0.0247,0.0221,0.028,0.0437,0.0436,0.0316,0,0,0,0,0,0,-0.0753,-0.0813,-0.0842,-0.09,-0.0939,-0.0988,-0.0995,-0.0955,-0.0883,-0.0801,-0.065,-0.0546,-0.0282,-0.037,-0.0011,0.0037,0.0089,0.0358,0.036,0.0438,0.0437,0.0435,0.0312,0,0,0,0,0]}]]